Regional Weather Roundup
Issued by NWS

Home | Current Version | Previous Version | Graphics & Text | Print | Product List | Glossary On
Versions: 1 2 3 4 5 6 7 8 9 10 11 12 13 14 15 16 17 18 19 20 21 22 23 24 25 26 27 28 29 30 31 32 33 34 35 36 37 38 39 40 41 42 43 44 45 46 47 48 49 50
000
ASUS45 KSLC 271110
RWRUT

UTAH REGIONAL WEATHER ROUNDUP
NATIONAL WEATHER SERVICE SALT LAKE CITY UT
400 AM MST TUE JAN 27 2015

UTZ001>011-023>025-271200-

NORTHERN UTAH

CITY           SKY/WX    TMP DP  RH WIND       PRES   REMARKS
BRIGHAM CITY   PTCLDY    29  28  93 CALM      30.19S
HILL AFB       PTCLDY    36  29  77 SE7       30.18R WCI  30
LOGAN          CLEAR     26  24  92 W5        30.18F WCI  20
OGDEN          PTCLDY    32  31  96 S3        30.18R
PROVO AIRPORT  PTCLDY    28  25  86 NE5       30.20S WCI  23
SALT LAKE CITY PTCLDY    30  29  96 CALM      30.19R FOG
VERNAL         PTCLDY    23  18  81 W3        30.32F
WENDOVER       MOCLDY    28  25  86 SE7       30.19S WCI  21
HEBER CITY     PTCLDY    27  23  86 CALM      30.23S
WEST JORDAN    CLEAR     34  32  93 CALM      30.19R

$$

UTZ012>022-026-027-271200-

SOUTHERN/CENTRAL UTAH

CITY           SKY/WX    TMP DP  RH WIND       PRES   REMARKS
BLANDING       CLEAR     39  25  57 E6        30.37F WCI  35
BRYCE CANYON   CLOUDY    35  30  82 NE3       30.31S
CEDAR CITY     LGT RAIN  42  34  73 S10       30.23R
DELTA          CLOUDY    32  31  96 NE3       30.18F
MILFORD        CLOUDY    34  30  85 S7        30.20S WCI  28
MOAB/CYNLANDS  CLEAR     32  27  81 CALM      30.27F
PRICE          CLOUDY    33  24  69 N6        30.29S WCI  28
ST GEORGE      CLOUDY    48  39  71 N6        30.27R
KANAB          CLOUDY    39  39 100 N3        30.31S

$$

REGIONAL REPORTS     COLORADO/ARIZONA

CITY           SKY/WX    TMP DP  RH WIND       PRES   REMARKS
CRAIG, CO      CLEAR     13  10  88 CALM      30.34F
GRAND JUNCTION PTCLDY    32  25  75 SE7       30.29F WCI  26
RIFLE          CLEAR     27  22  81 SW5       30.35F WCI  22
MONTROSE       PTCLDY    28  21  75 SE6       30.34F WCI  22
CORTEZ         CLEAR     29  23  78 NE6       30.32F WCI  23
PAGE, AZ       NOT AVBL
GRAND CANYON   LGT RAIN  38  36  92 NE3       30.29F
KINGMAN        CLOUDY    46  44  93 S3        30.21F
FLAGSTAFF      CLOUDY    39  31  72 SW3       30.30S

$$

REGIONAL REPORTS    NEVADA/IDAHO/WYOMING

CITY           SKY/WX    TMP DP  RH WIND       PRES   REMARKS
LAS VEGAS, NV  CLOUDY    52  47  83 SE6       30.17S
ELY            CLOUDY    40  28  62 SW9       30.20F WCI  34
ELKO           CLOUDY    32  27  81 E6        30.12S WCI  26
POCATELLO, ID  CLEAR     26  26 100 NE8       30.13F WCI  18
BURLEY         PTCLDY    35  30  82 NE15      30.07F WCI  25
EVANSTON, WY   PTCLDY    34  25  69 E12       30.24F WCI  25
ROCK SPRINGS   PTCLDY    33  25  72 CALM      30.25F
KEMMERER       CLEAR     27  21  80 N8        30.26F WCI  18

$$


USA.gov is the U.S. government's official web portal to all federal, state and local government web resources and services.